Location: North Evanston
(42.0634°N, 87.6976°W)
Time: 00:10:57
(UTC+00:00)

Explorer 7 - Visible Passes

Search period start: 12 May 2026 00:00
Search period end: 22 May 2026 00:00
Orbit: 427 x 536 km, 50.2° (Epoch: 11 May)

Date Brightness Start Highest point End Pass type
(mag) Time Alt. Az. Time Alt. Az. Time Alt. Az.
14 May 8.7 09:56:57 10° S 09:59:24 18° SE 10:01:55 10° E visible
15 May 8.8 09:29:28 10° S 09:31:43 16° SE 09:34:02 10° E visible
16 May 8.8 09:02:00 10° SSE 09:04:03 15° SE 09:06:07 10° E visible
17 May 8.7 08:35:23 12° SSE 08:36:21 13° SE 08:38:08 10° E visible
18 May 8.9 08:08:44 12° SE 08:08:44 12° SE 08:10:05 10° ESE visible
18 May 6.4 09:42:58 11° SW 09:46:22 87° SSE 09:50:01 10° ENE visible
19 May 6.4 09:16:14 19° SW 09:18:38 80° SE 09:22:13 10° ENE visible
20 May 6.3 08:49:26 33° SW 08:50:52 74° SE 08:54:26 10° ENE visible
21 May 6.3 08:22:35 56° SSW 08:23:06 67° SE 08:26:38 10° ENE visible
